Fountain, MN

5:33 PM CDT on August 31, 2016 (GMT -0500)
Preston

Weather History for KFKA - May, 2013

Change the Weather History Date:

Monday, May 20, 2013

  Actual Average (KRST) Record (KRST)
Temperature  
Mean Temperature 66 °F 59 °F  
Max Temperature 73 °F 70 °F 96 °F (1934)
Min Temperature 60 °F 49 °F 30 °F (1954)
Degree Days  
Heating Degree Days 0 7  
Month to date heating degree days 186  
Since 1 July heating degree days 7611  
Cooling Degree Days 2 1  
Month to date cooling degree days 13  
Year to date cooling degree days 17  
Growing Degree Days 16 (Base 50)    
Moisture  
Dew Point 59 °F    
Average Humidity 78    
Maximum Humidity 98    
Minimum Humidity 58    
Precipitation  
Precipitation 0.29 in 0.12 in 2.97 in (1912)
Month to date precipitation 2.30  
Year to date precipitation 9.11  
Snow  
Snow 0.00 in 0.00 in 0.00 in (2012)
Month to date snowfall 0.2  
Since 1 July snowfall 52.1  
Snow Depth -    
Sea Level Pressure  
Sea Level Pressure 29.63 in    
Wind  
Wind Speed 11 mph (South)    
Max Wind Speed 25 mph    
Max Gust Speed 34 mph    
Visibility 10 miles    
Events Rain , Thunderstorm    
T = Trace of Precipitation, MM = Missing Value Source: NWS Daily Summary

Daily Weather History Graph

Daily Weather History Graph

Search for Another Location

Airport or City:

Trip Planner

Search our weather history database for the weather conditions in past years. The results will help you decide how hot, cold, wet, or windy it might be!

Date:

Astronomy

May. 20, 2013 Rise Set
Actual Time 5:38 AM CDT 8:32 PM CDT
Civil Twilight 5:04 AM CDT 9:06 PM CDT
Nautical Twilight 4:21 AM CDT 9:49 PM CDT
Astronomical Twilight 3:31 AM CDT 10:40 PM CDT
Moon 3:32 PM CDT (5/20) 2:43 AM CDT (5/20)
Length of Visible Light 16h 02m
Length of Day
14h 54m
Waxing Gibbous, 75% of the Moon is Illuminated
May 20
Waxing Gibbous
May 24
Full
May 31
Last Quarter
Jun 8
New
Jun 16
First Quarter

Hourly Weather History & Observations

Time (CDT) Temp. Dew Point Humidity Pressure Visibility Wind Dir Wind Speed Gust Speed Precip Events Conditions
12:10 AM 62.6 °F 61.3 °F 96% 29.61 in 7.0 mi Calm Calm - 0.02 in Rain , Thunderstorm Heavy Thunderstorms and Rain
12:32 AM 62.6 °F 61.7 °F 97% 29.68 in 4.0 mi SSE 8.1 mph - 0.09 in Rain , Thunderstorm Thunderstorms and Rain
12:52 AM 62.6 °F 61.7 °F 97% 29.68 in 4.0 mi SSE 5.8 mph - 0.18 in Rain , Thunderstorm Thunderstorms and Rain
1:13 AM 62.2 °F 61.3 °F 97% 29.66 in 5.0 mi SE 6.9 mph - 0.04 in Rain , Thunderstorm Thunderstorms and Rain
1:32 AM 62.1 °F 61.3 °F 97% 29.62 in 7.0 mi East 10.4 mph - 0.06 in Rain , Thunderstorm Light Thunderstorms and Rain
1:52 AM 62.1 °F 61.5 °F 98% 29.64 in 10.0 mi ESE 9.2 mph - 0.07 in Rain Light Rain
2:12 AM 62.2 °F 61.5 °F 97% 29.65 in 10.0 mi SSE 6.9 mph - N/A   Overcast
2:33 AM 62.1 °F 61.2 °F 97% 29.62 in 10.0 mi South 3.5 mph - N/A   Overcast
2:53 AM 61.9 °F 61.0 °F 97% 29.60 in 10.0 mi SSE 4.6 mph - N/A   Overcast
3:13 AM 61.7 °F 60.8 °F 97% 29.60 in 10.0 mi South 6.9 mph - N/A   Overcast
3:32 AM 61.7 °F 60.8 °F 97% 29.59 in 10.0 mi SE 9.2 mph - N/A   Overcast
3:52 AM 61.7 °F 60.8 °F 97% 29.59 in 10.0 mi SSE 11.5 mph - N/A   Overcast
4:12 AM 61.7 °F 60.8 °F 97% 29.58 in 10.0 mi SE 10.4 mph - N/A   Overcast
4:33 AM 61.5 °F 60.8 °F 97% 29.57 in 10.0 mi SSE 10.4 mph 17.3 mph N/A   Overcast
4:52 AM 61.3 °F 60.4 °F 97% 29.57 in 10.0 mi SSE 10.4 mph 19.6 mph N/A   Overcast
5:12 AM 61.2 °F 59.9 °F 96% 29.58 in 10.0 mi SSE 11.5 mph - N/A   Overcast
5:32 AM 60.8 °F 59.4 °F 95% 29.59 in 10.0 mi South 16.1 mph - N/A   Mostly Cloudy
5:52 AM 60.8 °F 59.2 °F 94% 29.60 in 10.0 mi South 12.7 mph - N/A   Scattered Clouds
6:13 AM 60.8 °F 59.2 °F 94% 29.61 in 10.0 mi South 13.8 mph 19.6 mph N/A   Mostly Cloudy
6:53 AM 61.0 °F 59.4 °F 94% 29.62 in 7.0 mi South 17.3 mph 26.5 mph N/A   Mostly Cloudy
7:13 AM 61.7 °F 59.2 °F 91% 29.62 in 10.0 mi South 17.3 mph 23.0 mph N/A   Overcast
7:33 AM 61.7 °F 59.2 °F 91% 29.62 in 10.0 mi South 16.1 mph - N/A   Overcast
7:53 AM 62.2 °F 59.4 °F 90% 29.63 in 10.0 mi South 15.0 mph 19.6 mph N/A   Overcast
8:13 AM 62.6 °F 59.7 °F 90% 29.62 in 10.0 mi South 12.7 mph 21.9 mph N/A   Overcast
8:33 AM 62.6 °F 59.0 °F 88% 29.63 in 10.0 mi South 15.0 mph 24.2 mph N/A   Overcast
8:53 AM 63.5 °F 59.0 °F 85% 29.63 in 10.0 mi South 19.6 mph 25.3 mph N/A   Overcast
9:13 AM 64.2 °F 59.0 °F 83% 29.64 in 10.0 mi SSW 23.0 mph 28.8 mph N/A   Overcast
9:32 AM 64.9 °F 59.4 °F 82% 29.63 in 10.0 mi South 16.1 mph 20.7 mph N/A   Overcast
9:53 AM 66.0 °F 59.9 °F 81% 29.62 in 10.0 mi South 13.8 mph - N/A   Mostly Cloudy
10:13 AM 67.6 °F 60.3 °F 77% 29.62 in 10.0 mi SSE 11.5 mph 19.6 mph N/A   Mostly Cloudy
10:32 AM 68.5 °F 59.9 °F 74% 29.62 in 10.0 mi South 19.6 mph - N/A   Scattered Clouds
10:53 AM 69.6 °F 60.1 °F 72% 29.62 in 10.0 mi SSW 21.9 mph 29.9 mph N/A   Scattered Clouds
11:12 AM 69.8 °F 59.4 °F 69% 29.62 in 10.0 mi South 21.9 mph 27.6 mph N/A   Scattered Clouds
11:33 AM 70.0 °F 59.2 °F 68% 29.62 in 10.0 mi South 23.0 mph 29.9 mph N/A   Mostly Cloudy
11:53 AM 69.8 °F 58.8 °F 68% 29.63 in 10.0 mi South 24.2 mph 33.4 mph N/A   Overcast
12:13 PM 69.4 °F 58.8 °F 69% 29.63 in 10.0 mi SSW 23.0 mph 29.9 mph N/A   Overcast
12:33 PM 69.6 °F 58.6 °F 68% 29.63 in 10.0 mi South 25.3 mph 28.8 mph N/A   Overcast
12:53 PM 70.2 °F 59.0 °F 68% 29.63 in 10.0 mi SSW 21.9 mph 26.5 mph N/A   Overcast
1:13 PM 70.7 °F 59.4 °F 67% 29.64 in 10.0 mi SSW 19.6 mph 27.6 mph N/A   Mostly Cloudy
1:33 PM 70.0 °F 58.8 °F 68% 29.65 in 10.0 mi SSW 23.0 mph 32.2 mph N/A   Overcast
1:53 PM 70.9 °F 59.7 °F 68% 29.65 in 10.0 mi SSW 24.2 mph - N/A   Overcast
2:13 PM 71.1 °F 58.5 °F 64% 29.65 in 10.0 mi SSW 21.9 mph 34.5 mph N/A   Mostly Cloudy
2:33 PM 71.8 °F 59.0 °F 64% 29.65 in 10.0 mi SSW 23.0 mph 31.1 mph N/A   Mostly Cloudy
2:53 PM 72.5 °F 60.1 °F 65% 29.65 in 10.0 mi SSW 16.1 mph 23.0 mph N/A   Scattered Clouds
3:13 PM 73.4 °F 59.0 °F 61% 29.65 in 10.0 mi SW 25.3 mph 32.2 mph N/A   Scattered Clouds
3:33 PM 72.1 °F 58.6 °F 62% 29.65 in 10.0 mi SW 20.7 mph 29.9 mph N/A   Scattered Clouds
3:53 PM 72.5 °F 60.3 °F 65% 29.66 in 10.0 mi SW 17.3 mph 24.2 mph N/A   Scattered Clouds
4:13 PM 72.5 °F 59.5 °F 64% 29.66 in 10.0 mi SW 23.0 mph 29.9 mph N/A   Scattered Clouds
4:33 PM 73.6 °F 59.9 °F 62% 29.65 in 10.0 mi SW 13.8 mph 27.6 mph N/A   Scattered Clouds
4:53 PM 73.4 °F 59.4 °F 61% 29.66 in 10.0 mi SSW 16.1 mph 25.3 mph N/A   Scattered Clouds
5:13 PM 73.6 °F 57.7 °F 58% 29.66 in 10.0 mi SW 17.3 mph 24.2 mph N/A   Scattered Clouds
5:33 PM 73.4 °F 57.7 °F 58% 29.66 in 10.0 mi SW 13.8 mph 20.7 mph N/A   Scattered Clouds
5:53 PM 72.5 °F 58.6 °F 62% 29.65 in 10.0 mi SW 9.2 mph - N/A   Scattered Clouds
6:13 PM 71.4 °F 56.7 °F 60% 29.65 in 10.0 mi SW 12.7 mph 18.4 mph N/A   Scattered Clouds
6:33 PM 72.3 °F 57.9 °F 60% 29.65 in 10.0 mi SSW 10.4 mph - N/A   Scattered Clouds
6:53 PM 72.1 °F 57.6 °F 60% 29.65 in 10.0 mi SSW 10.4 mph - N/A   Clear
7:13 PM 72.0 °F 57.9 °F 61% 29.64 in 10.0 mi SSW 5.8 mph - N/A   Clear
7:33 PM 71.1 °F 57.9 °F 63% 29.64 in 10.0 mi SSW 8.1 mph - N/A   Clear
7:54 PM 70.2 °F 58.8 °F 67% 29.63 in 10.0 mi South 5.8 mph - N/A   Clear
8:13 PM 69.8 °F 59.0 °F 68% 29.63 in 10.0 mi SSE 3.5 mph - N/A   Clear
8:33 PM 68.9 °F 59.0 °F 71% 29.63 in 10.0 mi SE 4.6 mph - N/A   Clear
8:53 PM 68.7 °F 59.0 °F 71% 29.62 in 10.0 mi SE 5.8 mph - N/A   Clear
9:13 PM 68.2 °F 58.8 °F 72% 29.62 in 10.0 mi SE 5.8 mph - N/A   Scattered Clouds
9:32 PM 68.2 °F 59.0 °F 72% 29.61 in 10.0 mi SE 6.9 mph - N/A   Mostly Cloudy
9:53 PM 68.0 °F 59.2 °F 73% 29.60 in 10.0 mi SE 5.8 mph - N/A   Mostly Cloudy
10:13 PM 68.2 °F 59.5 °F 74% 29.60 in 10.0 mi SE 6.9 mph - N/A   Scattered Clouds
10:33 PM 66.7 °F 60.6 °F 81% 29.61 in 10.0 mi South 10.4 mph 16.1 mph N/A Rain Light Rain
10:53 PM 64.9 °F 57.4 °F 76% 29.60 in 10.0 mi South 24.2 mph 33.4 mph 0.01 in Rain Light Rain
11:13 PM 61.2 °F 55.9 °F 83% 29.59 in 7.0 mi South 11.5 mph 17.3 mph 0.03 in Rain , Thunderstorm Light Thunderstorms and Rain
11:33 PM 61.7 °F 55.6 °F 80% 29.58 in 10.0 mi SW 6.9 mph - 0.03 in Rain Light Rain
11:53 PM 61.0 °F 55.4 °F 82% 29.59 in 10.0 mi WSW 6.9 mph - 0.03 in   Mostly Cloudy